Weather History for Cork Airport, Ireland

Change the Weather History Date:

Friday, November 9, 2012

  Actual Average Record
Temperature  
Mean Temperature 44 °F -  
Max Temperature 50 °F 49 °F - ()
Min Temperature 39 °F 39 °F - ()
Degree Days  
Heating Degree Days 20    
Moisture  
Dew Point 44 °F    
Average Humidity 95    
Maximum Humidity 100    
Minimum Humidity 82    
Precipitation  
Precipitation 0.12 in 0.15 in - ()
Sea Level Pressure  
Sea Level Pressure 29.64 in    
Wind  
Wind Speed 11 mph ()    
Max Wind Speed 18 mph    
Max Gust Speed -    
Visibility 5.9 miles    
Events Rain    
T = Trace of Precipitation, MM = Missing Value Source: Averaged Metar Reports

Daily Weather History Graph

Daily Weather History Graph

Search for Another Location

Airport:

Trip Planner

Search our weather history database for the weather conditions in past years. The results will help you decide how hot, cold, wet, or windy it might be!

Date:

Astronomy

Nov. 09, 2012 Rise Set
Actual Time 7:43 AM GMT 4:51 PM GMT
Civil Twilight 7:06 AM GMT 5:28 PM GMT
Nautical Twilight 6:26 AM GMT 6:08 PM GMT
Astronomical Twilight 5:46 AM GMT 6:47 PM GMT
Moon 1:52 AM GMT (11/9) 2:28 PM GMT (11/9)
Length of Visible Light 10h 21m
Length of Day
9h 08m
Waning Crescent, 25% of the Moon is Illuminated
Nov 9
Waning Crescent
Nov 13
New
Nov 20
First Quarter
Nov 28
Full
Dec 6
Last Quarter

Hourly Weather History & Observations

Time (GMT) Temp. Windchill Dew Point Humidity Pressure Visibility Wind Dir Wind Speed Gust Speed Precip Events Conditions
12:00 AM 46 °F - 45 °F 94% 29.93 in 12 mi SW 13.4 mph - - Rain Light Rain
12:00 AM 46.4 °F 40.7 °F 44.6 °F 93% 29.92 in 6.2 mi SW 12.7 mph - N/A   Mostly Cloudy
12:30 AM 46.4 °F 39.2 °F 44.6 °F 93% 29.86 in 6.2 mi SSW 18.4 mph - N/A   Mostly Cloudy
1:00 AM 48.2 °F - 44.6 °F 87% 29.86 in 6.2 mi SSW 16.1 mph - N/A   Mostly Cloudy
1:30 AM 46.4 °F 40.4 °F 44.6 °F 93% 29.86 in 5.0 mi SW 13.8 mph - N/A Rain Light Rain
2:00 AM 46.4 °F 40.1 °F 44.6 °F 93% 29.83 in 6.2 mi SSW 15.0 mph - N/A   Mostly Cloudy
2:30 AM 46.4 °F 42.4 °F 44.6 °F 93% 29.83 in 6.2 mi SSW 8.1 mph - N/A   Mostly Cloudy
3:00 AM 46.4 °F 41.1 °F 46.4 °F 100% 29.83 in 3.7 mi SW 11.5 mph - N/A Rain Light Rain
3:30 AM 46.4 °F 40.4 °F 44.6 °F 93% 29.80 in 6.2 mi SW 13.8 mph - N/A Rain Light Rain
4:00 AM 46.4 °F 39.5 °F 44.6 °F 93% 29.77 in 6.2 mi SSW 17.3 mph - N/A Rain Light Rain
4:30 AM 46.4 °F 39.8 °F 46.4 °F 100% 29.77 in 5.0 mi SSW 16.1 mph - N/A Rain Light Rain
5:00 AM 46.4 °F 40.1 °F 46.4 °F 100% 29.74 in 5.6 mi SSW 15.0 mph - N/A Rain Light Rain
5:30 AM 48.2 °F - 48.2 °F 100% 29.74 in 5.6 mi SSW 16.1 mph - N/A Rain Light Rain
6:00 AM 48 °F - 48 °F 98% 29.73 in 4 mi SSW 15.7 mph - - Rain Light Rain
6:00 AM 48.2 °F - 48.2 °F 100% 29.71 in 3.7 mi SSW 15.0 mph - N/A Rain Light Rain
6:30 AM 48.2 °F - 48.2 °F 100% 29.71 in 2.5 mi SSW 16.1 mph - N/A Rain Light Rain
7:00 AM 48.2 °F - 48.2 °F 100% 29.68 in 2.5 mi SSW 15.0 mph - N/A Rain Light Rain
7:30 AM 48.2 °F - 48.2 °F 100% 29.68 in 3.7 mi SSW 12.7 mph - N/A Rain Light Rain
8:00 AM 50.0 °F - 50.0 °F 100% 29.68 in 6.2 mi SSW 11.5 mph - N/A Rain Light Rain
8:30 AM 50.0 °F - 50.0 °F 100% 29.65 in 1.6 mi South 11.5 mph - N/A Rain Light Rain
9:00 AM 50.0 °F - 50.0 °F 100% 29.65 in 3.7 mi SSW 13.8 mph - N/A Rain Light Rain
9:30 AM 50.0 °F - 50.0 °F 100% 29.65 in 6.2 mi SW 12.7 mph - N/A Rain Light Rain
10:00 AM 48.2 °F - 48.2 °F 100% 29.65 in 6.2 mi WSW 11.5 mph - N/A   Mostly Cloudy
10:30 AM 48.2 °F - 46.4 °F 93% 29.62 in 6.2 mi WSW 9.2 mph - N/A   Mostly Cloudy
11:00 AM 48.2 °F - 46.4 °F 93% 29.62 in 6.2 mi WSW 6.9 mph - N/A   Mostly Cloudy
11:30 AM 48.2 °F - 48.2 °F 100% 29.62 in 6.2 mi SW 10.4 mph - N/A   Mostly Cloudy
12:00 PM 48 °F - 47 °F 97% 29.64 in 11 mi SW 8.9 mph - - Rain Light Rain
12:00 PM 48.2 °F - 48.2 °F 100% 29.62 in 6.2 mi SW 8.1 mph - N/A Rain Light Rain
12:30 PM 48.2 °F - 46.4 °F 93% 29.62 in 6.2 mi WSW 12.7 mph - N/A   Mostly Cloudy
1:00 PM 48.2 °F - 44.6 °F 87% 29.59 in 6.2 mi WSW 10.4 mph - N/A   Mostly Cloudy
1:30 PM 48.2 °F - 44.6 °F 87% 29.59 in 6.2 mi WSW 8.1 mph - N/A   Mostly Cloudy
2:00 PM 48.2 °F - 44.6 °F 87% 29.56 in 6.2 mi SW 9.2 mph - N/A   Mostly Cloudy
2:30 PM 48.2 °F - 44.6 °F 87% 29.56 in 6.2 mi SW 9.2 mph - N/A   Mostly Cloudy
3:00 PM 48.2 °F - 42.8 °F 82% 29.56 in 6.2 mi SW 10.4 mph - N/A   Scattered Clouds
3:30 PM 48.2 °F - 42.8 °F 82% 29.53 in 6.2 mi SW 11.5 mph - N/A   Partly Cloudy
4:00 PM 44.6 °F 39.7 °F 42.8 °F 93% 29.53 in 6.2 mi SW 9.2 mph - N/A   Partly Cloudy
4:30 PM 44.6 °F 39.7 °F 42.8 °F 93% 29.53 in 6.2 mi SW 9.2 mph - N/A   Partly Cloudy
5:00 PM 44.6 °F 40.7 °F 42.8 °F 93% 29.53 in 6.2 mi SW 6.9 mph - N/A   Mostly Cloudy
5:30 PM 42.8 °F 38.6 °F 41.0 °F 93% 29.53 in 6.2 mi SW 6.9 mph - N/A   Scattered Clouds
6:00 PM 41 °F - 40 °F 96% 29.55 in 22 mi SW 6.7 mph - -   Partly Cloudy
6:00 PM 41.0 °F 36.4 °F 41.0 °F 100% 29.53 in 6.2 mi SW 6.9 mph - N/A   Partly Cloudy
6:30 PM 41.0 °F 36.4 °F 41.0 °F 100% 29.50 in 6.2 mi SW 6.9 mph - N/A   Partly Cloudy
7:00 PM 42.8 °F 38.6 °F 42.8 °F 100% 29.50 in 6.2 mi SW 6.9 mph - N/A   Partly Cloudy
7:30 PM 42.8 °F 38.6 °F 42.8 °F 100% 29.50 in 6.2 mi WSW 6.9 mph - N/A   Mostly Cloudy
8:00 PM 42.8 °F 38.0 °F 41.0 °F 93% 29.50 in 6.2 mi WSW 8.1 mph - N/A   Scattered Clouds
8:30 PM 42.8 °F 38.0 °F 39.2 °F 87% 29.50 in 6.2 mi WSW 8.1 mph - N/A   Scattered Clouds
9:00 PM 41.0 °F 37.1 °F 39.2 °F 93% 29.50 in 6.2 mi WSW 5.8 mph - N/A   Scattered Clouds
9:30 PM 39.2 °F 34.2 °F 39.2 °F 100% 29.50 in 6.2 mi WSW 6.9 mph - N/A   Scattered Clouds
10:00 PM 41.0 °F 35.8 °F 37.4 °F 87% 29.47 in 6.2 mi WSW 8.1 mph - N/A   Partly Cloudy
10:30 PM 41.0 °F 35.8 °F 39.2 °F 93% 29.47 in 6.2 mi SW 8.1 mph - N/A   Partly Cloudy
11:00 PM 39.2 °F 35.0 °F 37.4 °F 93% 29.47 in 6.2 mi West 5.8 mph - N/A   Partly Cloudy
11:30 PM 39.2 °F 34.2 °F 37.4 °F 93% 29.47 in 6.2 mi WSW 6.9 mph - N/A   Partly Cloudy